Location: Peebles
(55.6412°N, 3.1714°W)
Time: 05:28:07
(UTC+01:00)

deb NNS O-4 - Pass Details

Date: 04 July 2022
Orbit: 977 x 1074 km, 89.9° (Epoch: 16 August)

Event Time Altitude Azimuth Distance (km) Brightness Sun altitude
Exits shadow 02:43:37 10° 183° (S) 2,931 ? -9.3°
Reaches altitude 10° 02:43:42 10° 183° (S) 2,903 ? -9.3°
Maximum altitude 02:50:23 79° 270° (W) 1,090 ? -9.0°
Drops below altitude 10° 02:57:01 10° 358° (N) 2,879 ? -8.6°
Sets 02:59:34 0° 360° (N) 3,824 ? -8.5°
